Погода в Алексеевке

Россия / Алтайский край     51°34′19″N   83°24′00″E
темп.,
°C
ветер,
м/с
пор.,
м/с
влажн.,
%
обл.,
%
осадки,
мм/ч
давл.,
гПа
погр.,
м
30 июня, чт
чт3001:00+16ююв226393 0.1 99518
04:00+12з379544 0.0 1002283
07:00+11зсз3789100 0.0 1004447
10:00+12з2371100 0.1 1004524
13:00+15зсз3461100 0.1 1004966
16:00+17сз225996 0.0 10041001
19:00+17сз226544 0.0 1004758
22:00+15зюз116657 0.0 100410
1 июля, пт
пт101:00+13ююв117510 0.0 100511
04:00+9юз11840 0.0 100610
07:00+11ююв11820 0.0 100745
10:00+15з236334 0.0 1007556
13:00+18зсз56540 0.0 10071212
16:00+19зсз57510 0.0 10071428
19:00+18зсз34630 0.0 1008920
22:00+12в117311 0.0 100911
2 июля, сб
сб201:00+9ююз11812 0.0 101110
04:00+7ююв22845 0.0 101214
07:00+10ююв22772 0.0 101256
10:00+17з46581 0.0 1011933
13:00+18з58534 0.0 10111820
16:00+18з3662100 0.0 10101226
19:00+18ююз246731 0.0 1010451
22:00+14юв226958 0.1 101012
3 июля, вс
вс301:00+9юв227912 0.1 101114
04:00+8юв22805 0.0 101014
07:00+10юв227736 0.0 100950
10:00+17зюз1160100 0.0 1009256
13:00+18сз446094 0.0 1009695
16:00+20вюв13545 0.0 10071417
19:00+20св22620 0.0 1005625
22:00+13в327612 0.0 100518
4 июля, пн
пн401:00+11вюв3283100 0.0 100323
04:00+11вюв2282100 0.0 100114
07:00+13вюв2276100 0.0 99951
10:00+19в36615 0.0 994329
13:00+26юз8144796 0.0 9922436
16:00+25юз814471 0.0 9912098
19:00+16ююз91792100 1.2 995694
22:00+13зюз4799100 6.8 996357